Enigmes

Forum dédié aux énigmes et à toutes formes de jeux de logique.

Déconnexion

Tu n'es pas identifié sur Prise2tete : s'identifier.

accueil Accueil forum Forum
[+]

Jeux de réflexion

Ci-dessous se trouve une liste uniquement composée de jeux de réflexion mise à jour quotidiennement. Les Jeux flash sont les jeux les plus développés sur Internet, il en existe des millions, de tous genres, accessibles gratuitement.

Les jeux listés ici apportent tous un concept nouveau ou une amélioration des jeux de réflexion habituels. Que ce soient des jeux de logique pure, de construction, de réflexion, de stratégie, d'analyse, d'adresse, des casse-tête ou des variantes de jeux classiques type tetris, sokoban, ou de jeux de plateaux, ils sont tous ici à une condition : ils doivent faire réfléchir le joueur !
Sujet Réponses Vues Dernier message
2 2820 Another Epilepsy Game MthS-MlndN 20-07-2008 21:35:14
3 3036 ADDiction FRiZMOUT 20-07-2008 01:11:30
0 3030 Basic Mouse Puzzle 4 EfCeBa 19-07-2008 11:36:52
1 2340 Doctor A.Tom sensini 17-07-2008 20:37:49
2 3024 Inquisitive Dave sensini 17-07-2008 02:22:04
0 1753 Royal Feast 2 EfCeBa 15-07-2008 21:05:39
0 2290 Telekinetic Eric EfCeBa 14-07-2008 18:47:29
0 4954 Ragdoll Cannon 1.5 EfCeBa 14-07-2008 18:29:48
1 2636 Bloc's 2 littlemiss69 14-07-2008 17:17:17
1 4092 Blockoban littlemiss69 14-07-2008 17:13:53
6 2653 GridWorks littlemiss69 14-07-2008 17:05:58
1 3380 Small Fry littlemiss69 14-07-2008 17:02:50
0 2433 Flatliner EfCeBa 12-07-2008 11:50:23
0 2352 Kilogranimals (Lesson 3) EfCeBa 09-07-2008 22:21:43
0 2254 Gone like the clappers EfCeBa 09-07-2008 22:15:04
2 2091 Dead Reckoning Ropie 09-07-2008 16:02:56
0 2290 Deflection EfCeBa 08-07-2008 11:12:26
0 12426 Totem Destroyer EfCeBa 08-07-2008 11:03:32
0 6946 Teleporter Twins EfCeBa 07-07-2008 10:38:38
1 9843 Big Adventure in the Miraculous Forest ash00 06-07-2008 13:23:20
0 2254 Mysterious Rings Revamped EfCeBa 04-07-2008 10:45:54
0 4629 Button Hunt 3 EfCeBa 02-07-2008 09:49:27
1 4872 Poiser littlemiss69 29-06-2008 16:36:20
2 2526 Seek ver.0 littlemiss69 29-06-2008 16:32:09
6 2685 Marbly littlemiss69 29-06-2008 16:26:10
2 3078 Numbers littlemiss69 29-06-2008 16:15:34
13 2912 Continue PomaH 25-06-2008 19:05:01
0 2331 Deadly Investigation EfCeBa 24-06-2008 11:47:04
1 4852 Grid 16 Boumi 23-06-2008 10:43:46
1 2349 Atomyx 2 littlemiss69 22-06-2008 10:31:03

Pied de page des forums

P2T basé sur PunBB
Screenshots par Robothumb

© Copyright 2002–2005 Rickard Andersson

Prise2Tete Forum Statistiques Liste des membres Hall of Fame Contact
© Prise2tete - Site d'énigmes et de réflexion.
Un jeu où seules la réflexion, la logique et la déduction permettent de trouver la solution.

Flux RSS de Prise2Tete Forum Jeux & Prise2Tete Test & Prise2Tete Partenariat et Publicité sur Prise2Tete